Weather History for KMTJ - April, 2013

Change the Weather History Date:

Tuesday, April 16, 2013

  Actual Average Record
Temperature  
Mean Temperature 50 °F 49 °F  
Max Temperature 68 °F 63 °F 75 °F (2005)
Min Temperature 31 °F 35 °F 16 °F (1999)
Degree Days  
Heating Degree Days 15 16  
Month to date heating degree days 280 288  
Since 1 July heating degree days 5666 5744  
Cooling Degree Days 0 0  
Month to date cooling degree days 0 0  
Year to date cooling degree days 0 0  
Moisture  
Dew Point 28 °F    
Average Humidity 56    
Maximum Humidity 96    
Minimum Humidity 16    
Precipitation  
Precipitation T in 0.03 in 0.07 in (2015)
Month to date precipitation 0.67 0.51  
Year to date precipitation 1.90 2.76  
Sea Level Pressure  
Sea Level Pressure 29.56 in    
Wind  
Wind Speed 16 mph (WSW)    
Max Wind Speed 39 mph    
Max Gust Speed 48 mph    
Visibility 10 miles    
Events Rain    
T = Trace of Precipitation, MM = Missing Value Source: NWS Daily Summary

Daily Weather History Graph

Daily Weather History Graph

Search for Another Location

Airport or City:

Trip Planner

Search our weather history database for the weather conditions in past years. The results will help you decide how hot, cold, wet, or windy it might be!

Date:

Astronomy

Apr. 16, 2013 Rise Set
Actual Time 6:33 AM MDT 7:49 PM MDT
Civil Twilight 6:06 AM MDT 8:17 PM MDT
Nautical Twilight 5:33 AM MDT 8:49 PM MDT
Astronomical Twilight 4:59 AM MDT 9:24 PM MDT
Moon 10:56 AM MDT (4/16) 12:46 AM MDT (4/16)
Length of Visible Light 14h 10m
Length of Day
13h 15m
Waxing Crescent, 34% of the Moon is Illuminated
Apr 16
Waxing Crescent
Apr 18
First Quarter
Apr 25
Full
May 2
Last Quarter
May 9
New

Hourly Weather History & Observations

Time (MDT) Temp. Windchill Dew Point Humidity Pressure Visibility Wind Dir Wind Speed Gust Speed Precip Events Conditions
12:53 AM 34.0 °F 28.0 °F 32.0 °F 92% 29.59 in 10.0 mi SSE 6.9 mph - N/A   Clear
1:53 AM 32.0 °F 27.5 °F 30.9 °F 96% 29.60 in 10.0 mi ESE 4.6 mph - N/A   Clear
2:53 AM 32.0 °F 25.6 °F 30.9 °F 96% 29.58 in 10.0 mi South 6.9 mph - N/A   Clear
3:53 AM 35.1 °F 30.1 °F 30.0 °F 82% 29.56 in 10.0 mi ESE 5.8 mph - N/A   Clear
4:53 AM 42.1 °F 36.6 °F 28.0 °F 58% 29.55 in 10.0 mi South 9.2 mph - N/A   Clear
6:53 AM 48.0 °F - 24.1 °F 39% 29.56 in 10.0 mi South 4.6 mph - N/A   Clear
7:53 AM 48.9 °F - 24.1 °F 38% 29.58 in 10.0 mi Variable 6.9 mph - N/A   Clear
8:53 AM 53.1 °F - 27.0 °F 37% 29.56 in 10.0 mi SSW 33.4 mph 43.7 mph N/A   Clear
9:53 AM 55.9 °F - 27.0 °F 33% 29.52 in 10.0 mi SW 17.3 mph 28.8 mph N/A   Partly Cloudy
10:53 AM 59.0 °F - 24.1 °F 26% 29.49 in 10.0 mi SW 27.6 mph 38.0 mph N/A   Clear
11:53 AM 62.1 °F - 21.9 °F 21% 29.47 in 10.0 mi SSW 29.9 mph 47.2 mph N/A   Clear
12:53 PM 63.0 °F - 21.0 °F 20% 29.45 in 10.0 mi SW 28.8 mph 39.1 mph N/A   Partly Cloudy
1:53 PM 66.0 °F - 19.9 °F 17% 29.42 in 10.0 mi SW 29.9 mph 42.6 mph N/A   Clear
2:53 PM 66.9 °F - 21.0 °F 17% 29.41 in 10.0 mi SW 24.2 mph 40.3 mph N/A   Clear
3:53 PM 66.9 °F - 19.0 °F 16% 29.38 in 5.0 mi WSW 26.5 mph 35.7 mph N/A   Haze
4:00 PM 66.2 °F - 19.4 °F 17% 29.53 in 5.0 mi WSW 27.6 mph 39.1 mph N/A   Haze
4:53 PM 55.9 °F - 33.1 °F 42% 29.44 in 10.0 mi NW 31.1 mph 36.8 mph N/A   Mostly Cloudy
5:07 PM 55.4 °F - 32.0 °F 41% 29.58 in 10.0 mi NW 23.0 mph 29.9 mph N/A   Scattered Clouds
5:53 PM 51.1 °F - 33.1 °F 50% 29.48 in 10.0 mi NW 20.7 mph 39.1 mph N/A   Partly Cloudy
6:53 PM 46.9 °F - 34.0 °F 61% 29.56 in 10.0 mi NW 15.0 mph 27.6 mph N/A   Clear
7:53 PM 43.0 °F 34.8 °F 33.1 °F 68% 29.63 in 10.0 mi NNW 18.4 mph 27.6 mph N/A   Clear
8:53 PM 41.0 °F 34.3 °F 33.1 °F 73% 29.66 in 10.0 mi NW 11.5 mph - N/A   Mostly Cloudy
9:53 PM 39.9 °F 35.8 °F 33.1 °F 77% 29.71 in 10.0 mi North 5.8 mph - 0.00 in Rain Light Rain
10:53 PM 36.0 °F 29.6 °F 30.9 °F 82% 29.73 in 10.0 mi North 8.1 mph - 0.00 in   Overcast
11:40 PM 35.6 °F 28.0 °F 30.2 °F 81% 29.83 in 10.0 mi NNE 10.4 mph - N/A   Overcast
11:53 PM 35.1 °F 27.9 °F 30.0 °F 82% 29.72 in 10.0 mi North 9.2 mph - N/A   Overcast